This is the latest recevied weather packets stored in our database for station/object KD7AWQ. If no packets are shown the sender has not sent any weather packets the latest 10 day(s).
| Time | Temp. | Humidity | Pressure | Rain* | Wind** | Luminosity | Snow |
|---|---|---|---|---|---|---|---|
| 1777737728 | 18.33° C | 41% | 1188.4 hPa | 0 mm | - | 675 W/m² | - |
| 1777737425 | 17.78° C | 42% | 1188.2 hPa | 0 mm | - | 657 W/m² | - |
| 1777737116 | 17.78° C | 42% | 1188.4 hPa | 0 mm | - | 613 W/m² | - |
| 1777736812 | 17.22° C | 43% | 1188.1 hPa | 0 mm | - | 618 W/m² | - |
| 1777736189 | 17.78° C | 43% | 1188.3 hPa | 0 mm | - | 574 W/m² | - |
| 1777735886 | 17.22° C | 43% | 1187.8 hPa | 0 mm | - | 551 W/m² | - |
| 1777735584 | 17.22° C | 44% | 1188.1 hPa | 0 mm | - | 530 W/m² | - |
| 1777735281 | 17.22° C | 45% | 1188 hPa | 0 mm | - | 510 W/m² | - |
| 1777734978 | 17.22° C | 45% | 1188 hPa | 0 mm | - | 487 W/m² | - |
| 1777734675 | 17.22° C | 45% | 1187.8 hPa | 0 mm | - | 465 W/m² | - |
| 1777734373 | 16.67° C | 45% | 1188.1 hPa | 0 mm | - | 446 W/m² | - |
| 1777734069 | 16.67° C | 46% | 1188.2 hPa | 0 mm | - | 422 W/m² | - |
| 1777733765 | 16.67° C | 46% | 1188.1 hPa | 0 mm | - | 400 W/m² | - |
| 1777733462 | 17.22° C | 47% | 1188 hPa | 0 mm | - | 377 W/m² | - |
| 1777733158 | 16.67° C | 48% | 1188.3 hPa | 0 mm | - | 355 W/m² | - |
| 1777732855 | 17.22° C | 47% | 1188.2 hPa | 0 mm | - | 332 W/m² | - |
| 1777732551 | 16.67° C | 47% | 1188.4 hPa | 0 mm | - | 311 W/m² | - |
| 1777732250 | 16.67° C | 49% | 1188.1 hPa | 0 mm | - | 289 W/m² | - |
| 1777731946 | 16.67° C | 49% | 1188 hPa | 0 mm | - | 267 W/m² | - |
| 1777731643 | 16.67° C | 49% | 1188.1 hPa | 0 mm | - | 247 W/m² | - |
| 1777731341 | 16.67° C | 50% | 1187.8 hPa | 0 mm | - | 226 W/m² | - |
| 1777731038 | 16.11° C | 51% | 1187.9 hPa | 0 mm | - | 206 W/m² | - |
| 1777730737 | 16.11° C | 51% | 1188 hPa | 0 mm | - | 185 W/m² | - |
| 1777730433 | 15.56° C | 52% | 1187.9 hPa | 0 mm | - | 168 W/m² | - |
| 1777730128 | 15° C | 53% | 1187.5 hPa | 0 mm | - | 147 W/m² | - |
* Rain latest hour (hover to see other rain measurements)
** Current wind speed in m/s (hover to see current wind gust speed)